Showing default

SERT3, 68499

Orbit data source: Space-Track

SERT3, 68499 is a payload satellite owned by Muon Space (US) in SSO that was launched on Mon, 30 Mar 2026 UTC via an FALCON 9 launch vehicle from the Air Force Western Test Range (AFWTR). Payload-class satellites include a variety of spacecraft equipped with specific instruments for various scientific and technological missions. These include communications satellites like Starlink; space stations such as the ISS; scientific satellites like the Hubble; Earth observation satellites from companies like Planet Labs, Umbra, and HawkEye 360; GPS; miniature CubeSats for education and research; and military/defense satellites.

Loading next visibility...
Identifier
68499, 2026-067CM
Orbit
SSO
Country
Flag of USUS
Related business
Manufacturer
Muon Space
Mission
Operational spacecraft
Bus & Motor
MUON HALO, Unknown motor
Mass
130 kg wet, 125 kg dry
Launch date (UTC)
2026-03-30 (3 months ago)
Launch vehicle
FALCON 9
Launch site
Air Force Western Test Range (AFWTR)
Object type
Payload
Rocket body
Debris
Shape & HBR
Unknown shape, 1.3 m
Radar Cross Section
Large (>1 m²)

Expand to show TLE details & history
Last TLE update: 9 hours ago

TLE from 9 hours ago
0 SERT3
1 68499U 26067CM  26174.83862938  .00001439  00000-0  14897-3 0  9993
2 68499  97.7582 132.9361 0002624  55.4572 304.6894 14.91593026 12718
Epoch: 2026-06-23T20:07Z
TLE epoch observation values (Epoch: 2026-06-23T20:07:37.578Z)
Latitude
-0.00002°
Longitude
-80.97492°
Altitude
594.968 km
Speed
7.563 km/s
True Right ascension
08h 51m 44s
True Declination
0° 00' 00"
Sunlit
Object was in daylight at epoch
Visualization orbit readout
Latitude
Unknown
Longitude
Unknown
Altitude
Unknown
Speed
Unknown
Apparent Right ascension
Unknown
Apparent Declination
Unknown
Sunlit
N/A
Visualization observer readout
Local Sidereal Time
16:20:34
Azimuth
Unknown
Elevation
Unknown
Doppler factor
Unknown
Orbital elements
Apogee altitude
591.815 km
Perigee altitude
588.158 km
Semi-major axis
6,968.124 km
Eccentricity
0.00026
Inclination
97.7582°
RAAN
132.9361°
Arg. of periapsis
55.4572°
True anomaly
304.66467°
Mean anomaly
304.6894°
Eccentric anomaly
304.67704°
Mean motion
3.73138 °/min
Orbital period
96.48 mins
BSTAR
0.00014897
Loading maneuver chart data...
Computing Atmospheric mass density...
Loading historical data...
Loading historical data...
Loading historical data...
Loading historical data...
Loading historical data...
Loading historical data...
Loading historical data...

Documentation

Showing up to 5 results
|